DUBAISAT-2

Last updated on Tue Jun 17 2025 00:02:29 GMT+0000 (Coordinated Universal Time)

1 39419U 13066D 25167.46506203 .00003601 00000+0 24803-3 0 9998 2 39419 97.4330 163.7954 0011400 200.1008 159.9773 15.06424641631268
UTC large
Height (km)
Speed (km/s)
/
Latitude / Longitude
Inclination (degrees)
Orbital Period (minutes)
Azimuth
Elevation
Range (km)
Doppler Factor

Next 0 passes for location: London (51.5072 / 0.1276)

Sorry there are no passes over London.